Guaymas, Mexico

3:56 AM MST on August 24, 2016 (GMT -0700)
Gen Jose Ma Yanez International

Weather History for MMGM - September, 2013

Change the Weather History Date:

Tuesday, September 3, 2013

  Actual Average Record
Temperature  
Mean Temperature 85 °F -  
Max Temperature 96 °F 93 °F 100 °F (1997)
Min Temperature 74 °F 77 °F 74 °F (2013)
Cooling Degree Days 20    
Growing Degree Days 35 (Base 50)    
Moisture  
Dew Point 78 °F    
Average Humidity 65    
Maximum Humidity 92    
Minimum Humidity 43    
Precipitation  
Precipitation 0.47 in - - ()
Sea Level Pressure  
Sea Level Pressure 29.76 in    
Wind  
Wind Speed 5 mph ()    
Max Wind Speed 15 mph    
Max Gust Speed -    
Visibility 10.0 miles    
Events      
Averages and records for this station are not official NWS values.
T = Trace of Precipitation, MM = Missing Value Source: Averaged Metar Reports

Daily Weather History Graph

Daily Weather History Graph

Search for Another Location

Airport or City:

Trip Planner

Search our weather history database for the weather conditions in past years. The results will help you decide how hot, cold, wet, or windy it might be!

Date:

Astronomy

Sep. 03, 2013 Rise Set
Actual Time 6:03 AM MST 6:41 PM MST
Civil Twilight 5:39 AM MST 7:05 PM MST
Nautical Twilight 5:11 AM MST 7:33 PM MST
Astronomical Twilight 4:43 AM MST 8:01 PM MST
Moon 4:24 AM MST (9/3) 5:29 PM MST (9/3)
Length of Visible Light 13h 26m
Length of Day
12h 38m
Waning Crescent, 3% of the Moon is Illuminated
Sep 3
Waning Crescent
Sep 5
New
Sep 12
First Quarter
Sep 19
Full
Sep 26
Last Quarter

Hourly Weather History & Observations

Time (MST) Temp. Heat Index Dew Point Humidity Pressure Visibility Wind Dir Wind Speed Gust Speed Precip Events Conditions
2:00 AM 86 °F - 72 °F 55% 29.78 in - WNW 2.2 mph - -  
5:00 AM 84 °F - 78 °F 78% 29.79 in - West 4.5 mph - -  
6:57 AM 87.8 °F 99.7 °F 77.0 °F 70% 29.75 in 10.0 mi Calm Calm - N/A   Partly Cloudy
7:42 AM 89.6 °F 104.7 °F 78.8 °F 70% 29.76 in 10.0 mi Calm Calm - N/A   Partly Cloudy
8:40 AM 93.2 °F 107.2 °F 77.0 °F 59% 29.77 in 10.0 mi Calm Calm - N/A   Scattered Clouds
9:47 AM 95.0 °F 107.4 °F 75.2 °F 53% 29.79 in 10.0 mi Calm Calm - N/A   Clear
10:50 AM 96.8 °F 118.6 °F 80.6 °F 60% 29.79 in 10.0 mi Calm Calm - N/A   Clear
11:00 AM 96 °F - 79 °F 50% 29.86 in - South 6.7 mph - -  
11:44 AM 95.0 °F 115.8 °F 80.6 °F 63% 29.77 in 10.0 mi South 15.0 mph - N/A   Partly Cloudy
12:48 PM 95.0 °F 115.8 °F 80.6 °F 63% 29.75 in 10.0 mi South 15.0 mph - N/A   Partly Cloudy
1:41 PM 95.0 °F 115.8 °F 80.6 °F 63% 29.73 in 10.0 mi South 9.2 mph - N/A   Partly Cloudy
2:42 PM 93.2 °F 117.1 °F 82.4 °F 71% 29.69 in 10.0 mi SSW 12.7 mph - N/A   Partly Cloudy
3:43 PM 91.4 °F 107.2 °F 78.8 °F 66% 29.66 in 10.0 mi SW 13.8 mph - N/A   Partly Cloudy
4:43 PM 91.4 °F 111.0 °F 80.6 °F 71% 29.63 in 10.0 mi SW 13.8 mph - N/A   Scattered Clouds
5:00 PM 95 °F - 75 °F 43% 29.68 in - WSW 11.2 mph - -  
6:40 PM 93.2 °F 110.2 °F 78.8 °F 63% 29.72 in 10.0 mi South 5.8 mph - N/A   Mostly Cloudy
6:42 PM 93.2 °F 110.2 °F 78.8 °F 63% 29.72 in 10.0 mi South 5.8 mph - N/A   Mostly Cloudy
8:00 PM 74 °F - 72 °F 92% 29.94 in - East 8.9 mph - -  
11:00 PM 76 °F - 72 °F 86% 29.84 in - WNW 4.5 mph - -